Regional Weather Roundup
Issued by NWS

Home | Current Version | Previous Version | Text Only | Print | Product List | Glossary On
Versions: 1 2 3 4 5 6 7 8 9 10 11 12 13 14 15 16 17 18 19 20 21 22 23 24 25 26 27 28 29 30 31 32 33 34 35 36 37 38 39 40 41 42 43 44 45 46 47 48 49 50
000
ASUS43 KLMK 210802
RWRKY
KENTUCKY REGIONAL WEATHER ROUNDUP
NATIONAL WEATHER SERVICE LOUISVILLE KY
400 AM EDT FRI JUL 21 2017

NOTE "FAIR" INDICATES FEW OR NO CLOUDS BELOW 12,000 FEET
WITH NO SIGNIFICANT WEATHER AND/OR OBSTRUCTIONS TO VISIBILITY.

KYZ001>023-026-027-061>063-070>075-210900-
WESTERN AND SOUTH CENTRAL KENTUCKY

CITY           SKY/WX    TMP DP  RH WIND       PRES   REMARKS
PADUCAH        CLEAR     77  73  87 CALM      29.98F
HENDERSON      PTCLDY    75  73  93 S5        29.98F
OWENSBORO      CLEAR     77  74  90 CALM      29.99F
HOPKINSVILLE   CLEAR     77  75  93 CALM      30.01F
BOWLING GREEN  CLOUDY    77  74  90 CALM      30.02F
GLASGOW        NOT AVBL
$$

KYZ024-025-028>034-038-045-046-053-210900-
NORTH CENTRAL KENTUCKY

CITY           SKY/WX    TMP DP  RH WIND       PRES   REMARKS
LOUISVILLE/SDF MOCLDY    81  74  79 SW5       29.99F
LOUISVILLE/LOU PTCLDY    77  75  93 S3        30.00F
FORT KNOX      CLEAR     75  74  95 CALM      30.00S
$$

KYZ035>037-039>044-047>052-055>060-089>105-210900-
NORTHEAST KENTUCKY

CITY           SKY/WX    TMP DP  RH WIND       PRES   REMARKS
LEXINGTON      PTCLDY    76  71  85 S6        30.03F
COVINGTON      CLOUDY    79  75  87 SW7       29.99F
FRANKFORT      CLEAR     76  71  85 SW6       30.00F
$$

KYZ054-064>069-076>088-106>120-210900-
SOUTHEAST KENTUCKY

CITY           SKY/WX    TMP DP  RH WIND       PRES   REMARKS
JACKSON        CLEAR     74  70  87 CALM      30.06S
LONDON         CLEAR     73  70  90 CALM      30.06F FOG
SOMERSET       CLEAR     72  72 100 CALM      30.06S FOG
MIDDLESBORO    CLOUDY    70  70 100 CALM      30.08F
MONTICELLO     SUNNY     70  70 100 W10       30.07F FOG
$$





USA.gov is the U.S. government's official web portal to all federal, state and local government web resources and services.